Location: Asheville, NC
(35.6000°N, 82.5500°W)
Time: 07:34:14
(UTC-04:00)

DOVE 4 - Pass Details

Date: 09 January 2018
Orbit: 589 x 803 km, 97.7° (Epoch: 19 June)

Event Time Altitude Azimuth Distance (km) Brightness Sun altitude
Rises 17:59:47 0° 216° (SW) 3,082 ? -5.4°
Reaches altitude 10° 18:04:07 10° 255° (WSW) 2,107 ? -6.2°
Maximum altitude 18:05:08 11° 268° (W) 2,051 ? -6.4°
Drops below altitude 10° 18:06:08 10° 280° (W) 2,081 ? -6.6°
Sets 18:10:18 0° 320° (NW) 2,940 ? -7.4°
